Flag for U.S.A. Weather past 2 weeks in Salt Lake City, Utah, U.S.A.

Now
83 °F

Passing clouds.


Feels Like: 81 °F
Forecast: 68 / 90 °F
Wind: No wind

Location: Salt Lake City International Airport

Current Time: Sep 16, 2014 at 8:39:01 PM

Latest Report: Sep 16, 2014 at 7:53 PM


Visibility: 10 mi

Pressure: 29.79 "Hg

Humidity: 21%

Dew point: 39 °F

Location of Salt Lake CityLocation

Historic Weather in Salt Lake City — Graph

°F

Salt Lake City temperature yesterday

Maximum temperature yesterday: 88 °F (at 3:53 PM)
Minimum temperature yesterday: 65 °F (at 7:53 AM)
Average temperature yesterday: 75 °F

Past Weeks' High & Low Weather Summary

 TemperatureHumidityPressure
High92 °F (Sep 16, 2:53 PM)96% (Sep 9, 5:53 AM)30.20 "Hg (Sep 9, 5:53 AM)
Low46 °F (Sep 12, 5:53 AM)9% (Sep 7, 6:53 PM)29.57 "Hg (Sep 3, 2:53 AM)
Average70 °F38%29.89 "Hg
* Reported Sep 1 6:53 PM — Sep 16 6:53 PM, Salt Lake City, Weather by CustomWeather, © 2014

Note: Actual official high and low records may vary slightly from our data, if they occured in-between our weather recording intervals... More about our weather records

Advertising

Salt Lake City weather history for previous 24 hours

 ConditionsComfort  
Time TempWeatherWind HumidityBarometerVisibility
6:53 PM
Sep 16
90 °FPassing clouds.No wind15%29.79 "Hg10 mi
5:53 PM92 °FPassing clouds.3 mph14%29.79 "Hg10 mi
4:53 PM91 °FPassing clouds.No wind14%29.80 "Hg10 mi
3:53 PM92 °FPassing clouds.3 mph14%29.81 "Hg10 mi
2:53 PM92 °FPassing clouds.10 mph13%29.84 "Hg10 mi
1:53 PM90 °FPassing clouds.12 mph15%29.87 "Hg10 mi
12:53 PM89 °FPassing clouds.12 mph16%29.88 "Hg10 mi
11:53 AM85 °FScattered clouds.12 mph20%29.90 "Hg10 mi
10:53 AM78 °FBroken clouds.12 mph29%29.95 "Hg10 mi
9:53 AM77 °FBroken clouds.6 mph28%29.96 "Hg10 mi
8:53 AM72 °FScattered clouds.8 mph38%29.94 "Hg10 mi
7:53 AM64 °FPassing clouds.7 mph50%29.96 "Hg10 mi
6:53 AM62 °FPassing clouds.7 mph52%29.94 "Hg10 mi
5:53 AM64 °FClear.10 mph49%29.92 "Hg10 mi
4:53 AM66 °FClear.12 mph43%29.90 "Hg10 mi
3:53 AM67 °FClear.10 mph41%29.91 "Hg10 mi
2:53 AM65 °FClear.8 mph47%29.93 "Hg10 mi
1:53 AM64 °FClear.7 mph49%29.94 "Hg10 mi
12:53 AM68 °FClear.9 mph40%29.92 "Hg10 mi
11:53 PM
Sep 15
70 °FPassing clouds.9 mph32%29.92 "Hg10 mi
10:53 PM71 °FPassing clouds.8 mph32%29.92 "Hg10 mi
9:53 PM71 °FPassing clouds.7 mph36%29.92 "Hg10 mi
8:53 PM75 °FPassing clouds.5 mph31%29.91 "Hg10 mi
Weather by CustomWeather, © 2014

See weather overviewHow to use our weather pages